Location: Kabel
(52.2514°N, 4.6533°E)
Time: 12:53:37
(UTC+00:00)

Daily predictions for brighter satellites

Satellite Brightness Start Highest point End
(mag) Time Altitude Azimuth Time Altitude Azimuth Time Altitude Azimuth
BREEZE-M DEB (TANK) 4.4 15:58:05 10° WSW 16:01:48 59° SSE 16:13:45 10° E
SL-16 R/B 4.1 16:05:47 10° WNW 16:09:35 18° NNW 16:13:25 10° NNE
PSLV R/B 3.9 16:06:39 10° SSE 16:10:41 61° ENE 16:14:41 10° N
CZ-4B R/B 3.5 16:06:17 10° SE 16:11:16 43° ENE 16:16:15 10° N
CZ-4B R/B 3.7 16:07:36 10° S 16:11:51 64° WSW 16:16:18 10° NNW
Meteor PRIRODA 4.1 16:08:59 10° S 16:12:39 69° WSW 16:16:22 10° NNW
Cosmos 2369 Rocket 2.7 16:07:54 10° NNW 16:13:13 38° NE 16:18:29 10° ESE
H-2A R/B 2.6 16:09:54 10° SE 16:13:58 52° ENE 16:17:55 10° N
Cosmos 1943 Rocket 2.3 16:09:32 10° NNW 16:15:00 54° NE 16:20:27 10° SE
ADEOS Rocket 3.7 16:08:18 10° NNE 16:16:01 62° E 16:23:38 10° S
MOS 1-B 4.4 16:10:46 10° SSE 16:16:31 71° ENE 16:22:20 10° NNW
H-2A R/B 2.9 16:16:40 10° NE 16:20:23 30° E 16:24:09 10° SSE
Cosmos 2221 3.2 16:16:12 10° SSW 16:20:27 57° WNW 16:24:43 10° N
NOAA 12 4.4 16:15:48 10° SE 16:20:53 47° ENE 16:25:58 10° N
Cosmos 1980 3.9 16:20:51 10° SW 16:26:33 80° WNW 16:32:17 10° NNE
NOAA 6 4.0 16:22:24 10° SSE 16:27:33 80° ENE 16:32:42 10° NNW
Okean O Rocket 1.9 16:23:27 10° SE 16:27:35 44° ENE 16:31:47 10° N
Cosmos 1782 4.3 16:25:36 10° SE 16:28:15 17° E 16:30:54 10° NE
Cosmos 1633 Rocket 3.3 16:24:39 10° N 16:28:54 47° ENE 16:33:06 10° SSE
Okean-O 4.2 16:27:09 10° E 16:29:36 15° NE 16:32:03 10° NNE
ISS -3.7 16:26:18 10° W 16:29:41 80° S 16:32:58 11° E
H-2A R/B 3.1 16:28:10 10° S 16:32:02 72° WSW 16:35:57 10° NNW
Meteor 2-12 Rocket 4.4 16:26:47 10° N 16:32:59 82° ENE 16:39:06 10° SSE
Cosmos 1933 3.9 16:29:58 10° SSE 16:33:42 37° E 16:37:29 10° NNE
Cosmos 2218 Rocket 4.1 16:29:12 10° N 16:35:13 51° ENE 16:41:12 10° SSE
Nadezhda 1 Rocket 4.2 16:29:41 10° SSW 16:36:04 83° W 16:42:32 10° N
Cosmos 2366 rocket 4.1 16:30:08 10° N 16:36:10 51° ENE 16:42:07 10° SSE
Meteor 1-25 Rocket 4.2 16:31:29 10° N 16:37:05 62° ENE 16:42:43 10° SSE
ERS-2 3.9 16:36:10 13° ENE 16:37:18 14° E 16:39:21 10° SE
Cosmos 1867 3.6 16:34:16 10° SSW 16:39:41 74° SE 16:44:54 11° NE
Envisat 3.2 16:38:44 10° S 16:43:49 78° WSW 16:48:56 10° NNW
Lacrosse 5 rocket 1.3 16:44:11 10° SW 16:47:46 53° SE 16:50:15 18° ENE
Cosmos 773 Rocket 4.4 16:44:51 10° S 16:49:51 45° ESE 16:54:46 11° NE
Cosmos 2297 4.4 16:47:10 10° NW 16:52:46 60° WSW 16:58:21 10° SSE
YAOGAN 6 2.9 16:49:13 10° S 16:52:50 71° WSW 16:56:25 10° NNW
Cosmos 2322 Rocket 4.3 16:49:58 10° NW 16:53:00 14° NNW 16:56:02 10° NNE
Cosmos 1606 2.8 16:51:28 10° SSW 16:55:21 79° W 16:59:16 10° N
CZ-4B R/B 2.5 16:56:26 21° ENE 16:57:01 22° E 16:59:34 10° SSE
AQUARIUS 4.1 16:53:30 10° SSE 16:58:00 81° ENE 17:02:32 10° NNW
FengYun 1-2 T 4.2 16:52:36 10° SSE 16:58:04 67° ENE 17:03:32 10° NNW
Landsat 5 3.6 16:53:42 10° NNE 16:58:11 86° ESE 17:02:42 10° SSW
Feng Yun 1-1 Rocket 4.4 16:52:46 10° SE 16:58:15 50° ENE 17:03:35 10° N
SL-16 R/B 2.2 16:54:07 10° SSW 16:59:44 72° ESE 17:05:04 12° NE
BREEZE-M DEB (TANK) 3.6 17:01:02 10° SSW 17:02:45 18° SSE 17:03:26 15° SE
Cosmos 1500 4.0 17:01:04 10° N 17:04:27 29° ENE 17:07:50 10° SE
Sich 1 4.3 17:02:17 10° NNW 17:06:27 43° W 17:10:33 10° SSW
SMAP 3.2 17:02:23 10° S 17:07:03 77° WSW 17:11:44 10° NNW
Cosmos 1656 Rocket 3.8 17:03:22 10° NNW 17:08:54 51° NE 17:14:20 10° SE
CZ-4C R/B 3.5 17:05:39 10° N 17:09:16 64° WNW 17:12:50 10° SSW
YAOGAN 1 3.5 17:09:18 20° E 17:10:50 25° ENE 17:14:24 10° N
Cosmos 1470 Rocket 3.4 17:07:08 10° N 17:11:28 71° ENE 17:15:47 10° SSE
Cosmos 783 Rocket 4.5 17:07:36 10° SSW 17:12:54 87° ESE 17:17:58 11° NNE
Cosmos 1151 Rocket 2.9 17:09:31 10° S 17:13:47 75° E 17:18:04 10° NNE
CSL-04 DEB 4.4 17:09:44 10° NNE 17:13:53 66° ESE 17:18:05 10° S
Cosmos 864 Rocket 4.5 17:10:51 10° N 17:17:12 89° ENE 17:23:28 10° S
Cosmos 2263 4.1 17:12:12 10° NNW 17:17:50 70° NE 17:23:25 10° SE
SL-8 Rocket 4.3 17:14:11 10° NNW 17:20:25 72° W 17:26:39 10° S
Cosmos 1515 Rocket 3.7 17:17:36 10° SSE 17:21:49 49° E 17:25:08 16° NNE
CZ-2C R/B 3.3 17:18:17 10° SE 17:22:50 39° ENE 17:27:16 10° N
Cosmos 1238 Rocket 3.5 17:20:01 10° N 17:23:34 33° ENE 17:27:45 10° SE
COSMO-SKYMED 1 3.1 17:23:06 27° NE 17:24:38 36° E 17:28:39 10° SSE
TIMED 4.5 17:20:55 10° S 17:25:14 62° ESE 17:27:39 25° NE
TELKOM 3 3.7 17:23:21 10° W 17:26:00 46° S 17:26:18 43° SSE
X-37B 2.6 17:26:32 10° SSW 17:28:46 18° SSE 17:29:28 17° SSE
Cosmos 2360 Rocket 4.4 17:26:02 10° NW 17:28:54 14° NNW 17:31:46 10° NNE
Cosmos 2333 Rocket 4.2 17:25:26 10° WNW 17:29:31 20° NNW 17:33:37 10° NNE
USA 281 3.3 17:23:29 10° SE 17:29:51 55° NE 17:36:15 10° NNW
USA 81 4.4 17:24:46 10° N 17:30:02 69° W 17:35:17 10° S
YAOGAN 3 4.4 17:26:36 10° SSE 17:30:57 76° ENE 17:35:20 10° NNW
Nadezhda 3 Rocket 4.3 17:25:30 10° SSE 17:31:24 42° E 17:37:20 10° NNE
Cosmos 2219 Rocket 4.2 17:27:24 10° WNW 17:31:29 20° NNW 17:35:35 10° NNE
Helios 1A Rocket 3.2 17:33:25 36° E 17:34:15 41° ENE 17:38:04 10° N
Meteor 2-6 Rocket 4.5 17:29:10 10° SSE 17:34:20 41° E 17:37:14 23° NE
Cosmos 2228 Rocket 3.7 17:30:23 10° SSE 17:34:29 35° E 17:34:29 35° E
Meteor 1-4 Rocket 2.3 17:32:07 10° S 17:35:42 86° ESE 17:37:26 28° NNE
Cosmos 1821 Rocket 4.0 17:29:56 10° N 17:36:08 61° ENE 17:42:23 10° SSE
H-2A R/B 2.5 17:35:17 24° ESE 17:37:43 38° ENE 17:42:24 10° N
Cosmos 1812 4.1 17:34:47 10° SSE 17:36:35 23° SE 17:36:35 23° SE
USA 267 3.2 17:34:11 24° E 17:38:24 74° NNE 17:44:57 10° WNW
Meteor 1-11 Rocket 4.0 17:33:39 10° N 17:39:10 45° ENE 17:44:47 10° SE
NOSS 3-3 (A) 4.4 17:32:36 10° NW 17:39:52 80° NE 17:47:58 11° SE
NOSS 3-3 (C) 4.4 17:32:40 10° NW 17:39:58 79° NE 17:47:58 11° SE
Cosmos 1939 Rocket 2.7 17:36:18 10° SSE 17:40:12 90° SW 17:44:11 10° NNW
Cosmos 44 Rocket 3.3 17:36:21 10° NW 17:41:32 80° NE 17:45:08 20° SE
Cosmos 1933 Rocket 3.6 17:37:03 10° NNW 17:41:32 85° W 17:46:00 10° S
Cosmos 1328 Rocket 3.8 17:37:27 10° SSW 17:41:45 68° WNW 17:46:08 10° N
CZ-4 R/B 4.3 17:37:54 10° SSE 17:42:00 69° ENE 17:46:08 10° N
CZ-4 R/B 1.5 17:41:26 39° ESE 17:42:26 50° ENE 17:46:25 10° N
Cosmos 1980 Rocket 4.1 17:42:22 10° NNW 17:44:47 13° NNE 17:45:16 13° NNE
CSL-04 Rocket 4.0 17:44:04 35° E 17:45:14 39° ENE 17:50:08 10° N
IRS-1C Rocket 4.0 17:41:19 10° SSE 17:46:36 86° ENE 17:51:56 10° NNW
SL-24 R/B 4.1 17:49:33 44° SE 17:49:33 44° SE 17:52:27 10° S
Cosmos 2181 Rocket 4.5 17:43:33 10° SSW 17:49:54 64° WNW 17:56:12 10° N
Cosmos 2237 Rocket 3.8 17:46:20 10° W 17:51:13 29° NW 17:55:39 12° NNE
Cosmos 1680 Rocket 4.4 17:46:38 10° SSE 17:50:18 30° ESE 17:50:18 30° ESE
Cosmos 1603 3.7 17:49:52 10° S 17:55:20 56° ESE 17:56:55 42° ENE
SL-16 R/B 4.4 17:54:25 10° NNW 17:56:14 11° N 17:57:42 10° NNE
H-2A R/B 3.5 17:52:33 10° N 17:56:25 36° WNW 18:00:21 10° SW
CZ-2D R/B 3.2 17:53:13 10° SSE 17:57:03 83° WSW 18:00:57 10° NNW
Cosmos 2369 Rocket 3.0 17:51:57 10° NW 17:57:28 51° WSW 18:02:54 10° S
Cosmos 1943 Rocket 3.9 17:53:37 10° NW 17:58:32 33° WSW 18:03:27 10° S
Cosmos 1943 3.3 17:53:14 10° S 17:58:43 54° ESE 17:59:58 45° ENE
Meteor 1-5 Rocket 4.2 17:53:43 10° NNW 17:59:42 90° E 18:05:29 10° S
Cosmos 1538 Rocket 4.0 17:55:27 10° SSW 18:00:51 87° WNW 18:03:44 29° NNE
Cosmos 1371 Rocket 3.9 17:57:37 10° NNW 18:02:46 60° ENE 18:03:40 52° ESE
Okean O Rocket 3.9 18:00:27 10° SSW 18:04:07 26° W 18:07:51 10° NW
Cosmos 1782 3.5 18:00:17 10° SSW 18:04:10 52° WNW 18:06:45 20° N
Okean-O 2.5 18:00:59 10° SSE 18:05:25 85° ENE 18:09:53 10° NNW
ISS -3.1 18:03:04 10° W 18:05:55 53° WSW 18:05:55 53° WSW
ARGOS 3.3 18:08:31 49° NE 18:08:31 49° NE 18:13:24 10° N
CENTAUR R/B 3.4 18:03:43 10° S 18:07:44 29° SE 18:07:44 29° SE
Cosmos 2056 Rocket 3.5 18:03:48 10° NNW 18:09:03 60° ENE 18:09:29 58° E
ERS-2 2.5 18:10:45 54° NNW 18:11:13 60° WNW 18:14:50 10° SSW
SKYMED 2 3.5 18:11:44 49° N 18:12:52 82° WNW 18:17:13 10° SSW
Cosmos 1869 Rocket 3.5 18:11:47 10° N 18:16:18 88° W 18:17:48 42° S
NOSS 3-2 (C) 4.4 18:11:53 10° S 18:15:09 27° SSE 18:15:09 27° SSE
BREEZE-M DEB (TANK) 4.4 18:14:25 10° SW 18:19:59 29° S 18:19:59 29° S
SJ-11-01 4.4 18:23:23 63° N 18:23:23 63° N 18:27:26 10° NNW
Cosmos 1605 Rocket 4.2 18:16:54 10° N 18:21:48 47° NE 18:21:48 47° NE
Cosmos 1624 Rocket 3.8 18:20:28 10° NNW 18:25:49 79° ENE 18:25:56 78° E
Lacrosse 5 rocket 2.4 18:23:25 10° W 18:25:53 35° WNW 18:25:53 35° WNW
Meteor 1-10 Rocket 4.0 18:21:48 10° S 18:27:26 83° E 18:28:49 53° NNE
Cosmos 371 Rocket 3.2 18:23:12 10° NNW 18:28:01 85° NW 18:28:01 85° NW
CZ-4B R/B 3.4 18:29:34 25° WNW 18:29:34 25° WNW 18:31:55 10° SW
Cosmos 2322 Rocket 4.4 18:37:44 10° NNW 18:39:26 12° N 18:39:26 12° N
NOSS 3-2 (A) 3.4 18:36:12 10° SSW 18:41:27 65° SSE 18:41:27 65° SSE
Cosmos 1535 Rocket 4.4 18:37:30 10° NNW 18:43:39 84° W 18:49:45 10° S
SL-16 R/B 3.8 18:39:26 10° WSW 18:44:23 30° NW 18:46:58 21° N
USA 215 3.3 18:46:42 56° SSE 18:46:42 56° SSE 18:52:54 10° SW
YAOGAN 1 3.5 18:46:28 46° WSW 18:46:44 46° W 18:50:56 10° NNW
Cosmos 1697 Rocket 4.5 18:46:32 10° NNW 18:48:48 20° N 18:48:48 20° N
MOS 1 Rocket 3.8 18:52:43 73° W 18:52:43 73° W 18:57:50 10° SSW
COSMO-SKYMED 1 4.2 19:00:19 31° NW 19:00:45 31° WNW 19:04:35 10° SW
USA 238 DEB 3.6 18:54:41 10° SW 19:00:35 70° S 19:00:35 70° S
USA 238 3.6 18:54:47 10° SW 19:00:39 69° S 19:00:39 69° S
CZ-2C R/B 4.4 18:58:20 10° SSW 19:02:48 34° W 19:07:10 10° NNW
Cosmos 1934 Rocket 4.5 18:59:16 10° NNW 19:05:31 58° W 19:11:40 10° S
USA 281 4.3 19:08:24 10° S 19:14:32 41° WSW 19:20:44 10° NW
H-2A R/B 3.2 19:15:55 34° SW 19:17:10 39° W 19:21:58 10° NNW
CZ-4 R/B 3.9 19:17:28 20° W 19:17:46 20° W 19:20:47 10° NW
USA 267 3.6 19:21:32 57° SW 19:21:37 57° SW 19:28:04 10° WNW
Cosmos 1980 Rocket 4.5 19:25:58 10° NNW 19:27:02 15° NNW 19:27:02 15° NNW
CENTAUR R/B 4.2 19:52:42 10° SW 19:54:58 25° WSW 19:54:58 25° WSW
